| time (UTC) | temp F | wind direction | speed knots | gust knots | rain 1hr in | rain 24hr in | rain mn in | humidity % | barometer mb |
| 20260502180527 | 65 | 135 | 6.1 | 8.7 | 0.00 | 0.00 | 0.00 | 8 | 1013.3 |
| 20260502180117 | 65 | 112 | 5.2 | 8.7 | 0.00 | 0.00 | 0.00 | 8 | 1013.3 |
| 20260502170203 | 67 | 90 | 5.2 | 7.8 | 0.00 | 0.00 | 0.00 | 8 | 1013.0 |
| 20260502164053 | 67 | 90 | 4.3 | 5.2 | 0.00 | 0.00 | 0.00 | 8 | 1013.3 |
| 20260502163707 | 67 | 135 | 6.1 | 8.7 | 0.00 | 0.00 | 0.00 | 8 | 1013.2 |
| 20260502163633 | 67 | 135 | 6.1 | 9.6 | 0.00 | 0.00 | 0.00 | 8 | 1013.1 |
| 20260502163208 | 67 | 112 | 6.1 | 7.8 | 0.00 | 0.00 | 0.00 | 8 | 1013.2 |
| 20260502162713 | 67 | 112 | 6.1 | 8.7 | 0.00 | 0.00 | 0.00 | 8 | 1013.3 |
| 20260502162459 | 67 | 112 | 7.0 | 9.6 | 0.00 | 0.00 | 0.00 | 8 | 1013.3 |
| 20260502162405 | 67 | 112 | 7.8 | 9.6 | 0.00 | 0.00 | 0.00 | 8 | 1013.2 |
| 20260502162000 | 67 | 90 | 7.8 | 11.3 | 0.00 | 0.00 | 0.00 | 8 | 1013.2 |
| 20260502161557 | 68 | 90 | 6.1 | 8.7 | 0.00 | 0.00 | 0.00 | 8 | 1013.3 |
| 20260502161515 | 68 | 90 | 7.0 | 8.7 | 0.00 | 0.00 | 0.00 | 8 | 1013.2 |
| 20260502161117 | 68 | 112 | 5.2 | 7.8 | 0.00 | 0.00 | 0.00 | 8 | 1013.3 |
| 20260502160630 | 67 | 67 | 6.1 | 10.4 | 0.00 | 0.00 | 0.00 | 8 | 1013.5 |
| 20260502160201 | 68 | 112 | 6.1 | 10.4 | 0.00 | 0.00 | 0.00 | 8 | 1013.3 |
| 20260502152338 | 68 | 112 | 7.8 | 9.6 | 0.00 | 0.00 | 0.00 | 8 | 1013.9 |
| 20260502152245 | 68 | 112 | 3.5 | 7.0 | 0.00 | 0.00 | 0.00 | 8 | 1013.9 |
| 20260502151939 | 68 | 112 | 5.2 | 7.8 | 0.00 | 0.00 | 0.00 | 8 | 1013.6 |
| 20260502151444 | 68 | 112 | 7.8 | 9.6 | 0.00 | 0.00 | 0.00 | 8 | 1013.8 |
| 20260502151009 | 68 | 135 | 7.8 | 10.4 | 0.00 | 0.00 | 0.00 | 8 | 1014.0 |
| 20260502150530 | 68 | 90 | 7.8 | 10.4 | 0.00 | 0.00 | 0.00 | 8 | 1014.3 |
| 20260502150119 | 68 | 112 | 5.2 | 7.8 | 0.00 | 0.00 | 0.00 | 8 | 1014.0 |
| 20260502130456 | 68 | 90 | 7.8 | 11.3 | 0.00 | 0.00 | 0.00 | 8 | 1015.4 |
| 20260502123538 | 67 | 112 | 4.3 | 7.8 | 0.00 | 0.00 | 0.00 | 8 | 1015.6 |
| 20260502123130 | 68 | 112 | 5.2 | 7.8 | 0.00 | 0.00 | 0.00 | 8 | 1015.4 |
| 20260502123127 | 68 | 90 | 5.2 | 8.7 | 0.00 | 0.00 | 0.00 | 8 | 1015.3 |
| 20260502122712 | 67 | 90 | 6.1 | 8.7 | 0.00 | 0.00 | 0.00 | 8 | 1015.7 |
| 20260502122245 | 67 | 67 | 7.0 | 9.6 | 0.00 | 0.00 | 0.00 | 8 | 1015.7 |
| 20260502121750 | 68 | 67 | 5.2 | 8.7 | 0.00 | 0.00 | 0.00 | 8 | 1015.7 |
| 20260502121347 | 67 | 67 | 6.1 | 7.8 | 0.00 | 0.00 | 0.00 | 8 | 1015.6 |
| 20260502120944 | 67 | 90 | 6.1 | 8.7 | 0.00 | 0.00 | 0.00 | 8 | 1015.7 |
| 20260502120536 | 67 | 112 | 3.5 | 5.2 | 0.00 | 0.00 | 0.00 | 8 | 1015.7 |
| 20260502120120 | 68 | 67 | 4.3 | 7.0 | 0.00 | 0.00 | 0.00 | 8 | 1015.7 |
| 20260502115710 | 67 | 112 | 7.0 | 9.6 | 0.00 | 0.00 | 0.00 | 8 | 1015.9 |
| 20260502115317 | 68 | 90 | 7.0 | 9.6 | 0.00 | 0.00 | 0.00 | 8 | 1015.8 |
| 20260502115313 | 68 | 67 | 7.0 | 8.7 | 0.00 | 0.00 | 0.00 | 8 | 1015.8 |
| 20260502114913 | 68 | 67 | 5.2 | 7.8 | 0.00 | 0.00 | 0.00 | 8 | 1016.0 |
| 20260502114432 | 68 | 90 | 7.8 | 11.3 | 0.00 | 0.00 | 0.00 | 8 | 1015.5 |
| 20260502114000 | 68 | 90 | 6.1 | 8.7 | 0.00 | 0.00 | 0.00 | 8 | 1015.6 |
| 20260502113554 | 68 | 90 | 7.8 | 9.6 | 0.00 | 0.00 | 0.00 | 8 | 1015.9 |
| 20260502113122 | 68 | 112 | 5.2 | 7.8 | 0.00 | 0.00 | 0.00 | 8 | 1015.8 |
| 20260502112714 | 68 | 67 | 7.8 | 10.4 | 0.00 | 0.00 | 0.00 | 8 | 1015.8 |
| 20260502112712 | 68 | 67 | 7.8 | 10.4 | 0.00 | 0.00 | 0.00 | 8 | 1015.8 |
| 20260502112342 | 69 | 90 | 5.2 | 7.0 | 0.00 | 0.00 | 0.00 | 8 | 1016.0 |
| 20260502111846 | 68 | 90 | 3.5 | 7.0 | 0.00 | 0.00 | 0.00 | 8 | 1016.2 |
| 20260502111358 | 68 | 135 | 5.2 | 7.8 | 0.00 | 0.00 | 0.00 | 8 | 1016.1 |
| 20260502110958 | 67 | 90 | 3.5 | 5.2 | 0.00 | 0.00 | 0.00 | 8 | 1016.2 |
| 20260502110501 | 67 | 67 | 2.6 | 5.2 | 0.00 | 0.00 | 0.00 | 8 | 1016.3 |
| 20260502110033 | 66 | 112 | 5.2 | 7.0 | 0.00 | 0.00 | 0.00 | 8 | 1016.3 |
| 20260502105623 | 66 | 90 | 3.5 | 5.2 | 0.00 | 0.00 | 0.00 | 9 | 1016.5 |
| 20260502105119 | 66 | 90 | 2.6 | 3.5 | 0.00 | 0.00 | 0.00 | 9 | 1016.6 |
| 20260502104646 | 66 | 112 | 2.6 | 3.5 | 0.00 | 0.00 | 0.00 | 9 | 1016.5 |
| 20260502104215 | 65 | 112 | 4.3 | 5.2 | 0.00 | 0.00 | 0.00 | 9 | 1016.6 |
| 20260502103748 | 65 | 90 | 2.6 | 3.5 | 0.00 | 0.00 | 0.00 | 9 | 1016.7 |
| 20260502103336 | 65 | 90 | 3.5 | 5.2 | 0.00 | 0.00 | 0.00 | 9 | 1016.6 |
| 20260502103327 | 65 | 112 | 5.2 | 7.0 | 0.00 | 0.00 | 0.00 | 9 | 1016.6 |
| 20260502102832 | 65 | 90 | 4.3 | 7.0 | 0.00 | 0.00 | 0.00 | 9 | 1016.9 |
| 20260502102504 | 65 | 112 | 2.6 | 3.5 | 0.00 | 0.00 | 0.00 | 9 | 1016.9 |
| 20260502102415 | 65 | 112 | 3.5 | 5.2 | 0.00 | 0.00 | 0.00 | 9 | 1016.6 |
| 20260502102002 | 65 | 90 | 3.5 | 5.2 | 0.00 | 0.00 | 0.00 | 9 | 1016.8 |
| 20260502101518 | 66 | 112 | 5.2 | 7.8 | 0.00 | 0.00 | 0.00 | 8 | 1016.6 |
| 20260502101115 | 66 | 112 | 5.2 | 7.8 | 0.00 | 0.00 | 0.00 | 8 | 1016.6 |
| 20260502100645 | 66 | 112 | 5.2 | 7.8 | 0.00 | 0.00 | 0.00 | 8 | 1016.7 |
| 20260502100157 | 66 | 135 | 6.1 | 7.8 | 0.00 | 0.00 | 0.00 | 8 | 1016.5 |
| 20260502091256 | 67 | 90 | 0.9 | 2.6 | 0.00 | 0.00 | 0.00 | 8 | 1016.9 |
| 20260502091102 | 67 | 67 | 0.9 | 2.6 | 0.00 | 0.00 | 0.00 | 8 | 1016.8 |
| 20260502090814 | 67 | 90 | 0.0 | 1.7 | 0.00 | 0.00 | 0.00 | 8 | 1017.0 |
| 20260502090356 | 66 | 90 | 3.5 | 3.5 | 0.00 | 0.00 | 0.00 | 8 | 1016.9 |
| 20260502071058 | 64 | 270 | 1.7 | 1.7 | 0.00 | 0.00 | 0.00 | 9 | 1017.0 |
| 20260502070609 | 64 | 247 | 1.7 | 2.6 | 0.00 | 0.00 | 0.00 | 9 | 1017.1 |
| 20260502070537 | 64 | 292 | 1.7 | 3.5 | 0.00 | 0.00 | 0.00 | 9 | 1017.0 |
| 20260502070121 | 65 | 337 | 0.0 | 1.7 | 0.00 | 0.00 | 0.00 | 9 | 1017.0 |
| 20260502065709 | 64 | 0 | 0.0 | 0.0 | 0.00 | 0.00 | 0.00 | 9 | 1017.0 |
| 20260502065707 | 64 | 0 | 0.0 | 0.0 | 0.00 | 0.00 | 0.00 | 9 | 1017.0 |
| 20260502065601 | 64 | 0 | 0.0 | 0.0 | 0.00 | 0.00 | 0.00 | 9 | 1017.0 |
| 20260502065108 | 64 | 270 | 0.0 | 1.7 | 0.00 | 0.00 | 0.00 | 9 | 1017.0 |
| 20260502064619 | 63 | 292 | 0.0 | 0.9 | 0.00 | 0.00 | 0.00 | 9 | 1016.9 |
| 20260502064612 | 63 | 292 | 0.0 | 1.7 | 0.00 | 0.00 | 0.00 | 9 | 1017.1 |
| 20260502064126 | 63 | 270 | 0.0 | 1.7 | 0.00 | 0.00 | 0.00 | 9 | 1016.9 |
| 20260502063657 | 63 | 292 | 0.9 | 1.7 | 0.00 | 0.00 | 0.00 | 9 | 1017.0 |
| 20260502063206 | 63 | 292 | 0.9 | 1.7 | 0.00 | 0.00 | 0.00 | 9 | 1016.9 |
| 20260502062713 | 63 | 292 | 0.0 | 0.9 | 0.00 | 0.00 | 0.00 | 9 | 1017.0 |
| 20260502062711 | 63 | 292 | 0.0 | 0.9 | 0.00 | 0.00 | 0.00 | 9 | 1017.0 |
| 20260502062439 | 63 | 292 | 0.0 | 0.9 | 0.00 | 0.00 | 0.00 | 9 | 1017.2 |
| 20260502062256 | 62 | 292 | 0.0 | 0.9 | 0.00 | 0.00 | 0.00 | 9 | 1017.2 |
| 20260502062014 | 62 | 292 | 0.0 | 1.7 | 0.00 | 0.00 | 0.00 | 9 | 1017.2 |
| 20260502061534 | 62 | 270 | 0.0 | 0.9 | 0.00 | 0.00 | 0.00 | 9 | 1017.2 |
| 20260502061401 | 62 | 270 | 0.9 | 1.7 | 0.00 | 0.00 | 0.00 | 9 | 1017.2 |
| 20260502061057 | 62 | 270 | 0.9 | 1.7 | 0.00 | 0.00 | 0.00 | 9 | 1017.3 |
| 20260502060608 | 62 | 270 | 1.7 | 1.7 | 0.00 | 0.00 | 0.00 | 9 | 1017.1 |
| 20260502060534 | 62 | 270 | 1.7 | 1.7 | 0.00 | 0.00 | 0.00 | 9 | 1017.1 |
| 20260502060119 | 62 | 270 | 0.9 | 1.7 | 0.00 | 0.00 | 0.00 | 9 | 1017.1 |
| 20260502055711 | 62 | 270 | 0.9 | 1.7 | 0.00 | 0.00 | 0.00 | 9 | 1016.8 |
| 20260502055456 | 62 | 270 | 0.0 | 0.9 | 0.00 | 0.00 | 0.00 | 9 | 1016.8 |
| 20260502055305 | 62 | 247 | 0.0 | 0.9 | 0.00 | 0.00 | 0.00 | 9 | 1017.0 |
| 20260502055001 | 62 | 247 | 0.9 | 1.7 | 0.00 | 0.00 | 0.00 | 9 | 1016.8 |
| 20260502054535 | 61 | 0 | 0.0 | 0.0 | 0.00 | 0.00 | 0.00 | 9 | 1016.9 |
| 20260502054407 | 61 | 270 | 0.0 | 0.9 | 0.00 | 0.00 | 0.00 | 9 | 1016.8 |
| 20260502054116 | 62 | 270 | 0.0 | 0.9 | 0.00 | 0.00 | 0.00 | 9 | 1016.9 |
| 20260502053616 | 61 | 0 | 0.0 | 0.9 | 0.00 | 0.00 | 0.00 | 9 | 1017.0 |
| 20260502053541 | 61 | 0 | 0.0 | 0.9 | 0.00 | 0.00 | 0.00 | 9 | 1017.0 |
| 20260502053127 | 61 | 270 | 0.9 | 1.7 | 0.00 | 0.00 | 0.00 | 9 | 1016.9 |
| 20260502052718 | 61 | 270 | 0.9 | 1.7 | 0.00 | 0.00 | 0.00 | 9 | 1016.8 |
| 20260502052716 | 61 | 270 | 0.9 | 1.7 | 0.00 | 0.00 | 0.00 | 9 | 1016.8 |
| 20260502052442 | 61 | 270 | 0.9 | 1.7 | 0.00 | 0.00 | 0.00 | 9 | 1016.8 |
| 20260502052016 | 61 | 270 | 1.7 | 1.7 | 0.00 | 0.00 | 0.00 | 9 | 1016.6 |
| 20260502051532 | 61 | 270 | 0.9 | 1.7 | 0.00 | 0.00 | 0.00 | 9 | 1016.7 |
| 20260502051102 | 61 | 0 | 0.0 | 0.9 | 0.00 | 0.00 | 0.00 | 9 | 1016.7 |
| 20260502050610 | 61 | 0 | 0.0 | 0.0 | 0.00 | 0.00 | 0.00 | 9 | 1016.8 |
| 20260502050538 | 61 | 0 | 0.0 | 0.0 | 0.00 | 0.00 | 0.00 | 9 | 1016.7 |
| 20260502050122 | 61 | 0 | 0.0 | 0.0 | 0.00 | 0.00 | 0.00 | 9 | 1016.6 |
| 20260502045710 | 61 | 0 | 0.0 | 0.0 | 0.00 | 0.00 | 0.00 | 9 | 1016.6 |
| 20260502045432 | 61 | 0 | 0.0 | 0.0 | 0.00 | 0.00 | 0.00 | 9 | 1016.5 |
| 20260502045327 | 61 | 0 | 0.0 | 0.0 | 0.00 | 0.00 | 0.00 | 9 | 1016.6 |
| 20260502045020 | 61 | 0 | 0.0 | 0.0 | 0.00 | 0.00 | 0.00 | 9 | 1016.7 |
| 20260502044524 | 61 | 270 | 0.9 | 1.7 | 0.00 | 0.00 | 0.00 | 9 | 1016.8 |
| 20260502044424 | 61 | 270 | 0.9 | 1.7 | 0.00 | 0.00 | 0.00 | 9 | 1016.9 |
| 20260502044059 | 61 | 0 | 0.0 | 0.0 | 0.00 | 0.00 | 0.00 | 9 | 1016.8 |
| 20260502043620 | 61 | 0 | 0.0 | 0.0 | 0.00 | 0.00 | 0.00 | 9 | 1016.7 |
| 20260502043146 | 61 | 0 | 0.0 | 0.0 | 0.00 | 0.00 | 0.00 | 9 | 1016.8 |
| 20260502042716 | 61 | 0 | 0.0 | 0.0 | 0.00 | 0.00 | 0.00 | 9 | 1016.8 |
| 20260502042308 | 61 | 270 | 0.0 | 0.9 | 0.00 | 0.00 | 0.00 | 9 | 1016.9 |
| 20260502041908 | 61 | 0 | 0.0 | 0.0 | 0.00 | 0.00 | 0.00 | 9 | 1016.9 |
| 20260502041428 | 61 | 0 | 0.0 | 0.9 | 0.00 | 0.00 | 0.00 | 9 | 1017.0 |
| 20260502041404 | 61 | 270 | 0.0 | 1.7 | 0.00 | 0.00 | 0.00 | 9 | 1017.0 |
| 20260502041023 | 61 | 0 | 0.0 | 0.9 | 0.00 | 0.00 | 0.00 | 9 | 1017.0 |
| 20260502040529 | 61 | 0 | 0.0 | 0.0 | 0.00 | 0.00 | 0.00 | 9 | 1017.1 |
| 20260502040118 | 61 | 247 | 0.0 | 0.9 | 0.00 | 0.00 | 0.00 | 9 | 1017.1 |
| 20260502035713 | 61 | 270 | 0.9 | 1.7 | 0.00 | 0.00 | 0.00 | 9 | 1017.2 |
| 20260502035341 | 61 | 270 | 1.7 | 1.7 | 0.00 | 0.00 | 0.00 | 9 | 1017.3 |
| 20260502034851 | 61 | 270 | 0.9 | 0.9 | 0.00 | 0.00 | 0.00 | 9 | 1017.4 |
| 20260502034439 | 61 | 270 | 0.0 | 0.9 | 0.00 | 0.00 | 0.00 | 9 | 1017.3 |
| 20260502034035 | 61 | 270 | 0.9 | 1.7 | 0.00 | 0.00 | 0.00 | 9 | 1017.3 |
| 20260502033621 | 61 | 292 | 0.9 | 1.7 | 0.00 | 0.00 | 0.00 | 9 | 1017.3 |
| 20260502033126 | 61 | 292 | 0.9 | 0.9 | 0.00 | 0.00 | 0.00 | 9 | 1017.4 |
| 20260502032710 | 61 | 292 | 0.9 | 1.7 | 0.00 | 0.00 | 0.00 | 9 | 1017.3 |
| 20260502032444 | 61 | 292 | 0.9 | 1.7 | 0.00 | 0.00 | 0.00 | 9 | 1017.5 |
| 20260502032002 | 61 | 292 | 0.0 | 0.9 | 0.00 | 0.00 | 0.00 | 9 | 1017.4 |
| 20260502031656 | 61 | 292 | 0.9 | 1.7 | 0.00 | 0.00 | 0.00 | 9 | 1017.4 |
| 20260502031514 | 61 | 270 | 0.9 | 1.7 | 0.00 | 0.00 | 0.00 | 9 | 1017.4 |
| 20260502031043 | 61 | 270 | 2.6 | 2.6 | 0.00 | 0.00 | 0.00 | 9 | 1017.4 |
| 20260502030657 | 61 | 270 | 1.7 | 2.6 | 0.00 | 0.00 | 0.00 | 9 | 1017.3 |
| 20260502030624 | 61 | 270 | 1.7 | 2.6 | 0.00 | 0.00 | 0.00 | 9 | 1017.3 |
| 20260502030159 | 61 | 0 | 0.0 | 0.0 | 0.00 | 0.00 | 0.00 | 9 | 1017.2 |
| 20260502025708 | 61 | 0 | 0.0 | 0.0 | 0.00 | 0.00 | 0.00 | 9 | 1017.0 |
| 20260502025706 | 61 | 0 | 0.0 | 0.0 | 0.00 | 0.00 | 0.00 | 9 | 1017.0 |
| 20260502025704 | 61 | 0 | 0.0 | 0.0 | 0.00 | 0.00 | 0.00 | 9 | 1017.0 |
| 20260502025548 | 61 | 0 | 0.0 | 0.0 | 0.00 | 0.00 | 0.00 | 9 | 1017.0 |
| 20260502025405 | 61 | 0 | 0.0 | 0.0 | 0.00 | 0.00 | 0.00 | 9 | 1017.0 |
| 20260502025000 | 61 | 202 | 0.0 | 1.7 | 0.00 | 0.00 | 0.00 | 9 | 1017.2 |
| 20260502024556 | 61 | 0 | 0.0 | 0.0 | 0.00 | 0.00 | 0.00 | 9 | 1017.1 |
| 20260502024117 | 61 | 292 | 0.0 | 0.9 | 0.00 | 0.00 | 0.00 | 9 | 1017.1 |
| 20260502023702 | 61 | 270 | 0.9 | 1.7 | 0.00 | 0.00 | 0.00 | 9 | 1017.1 |
| 20260502023630 | 61 | 270 | 0.9 | 1.7 | 0.00 | 0.00 | 0.00 | 9 | 1017.1 |
| 20260502023201 | 61 | 292 | 1.7 | 1.7 | 0.00 | 0.00 | 0.00 | 9 | 1017.1 |
| 20260502022713 | 61 | 270 | 0.9 | 0.9 | 0.00 | 0.00 | 0.00 | 9 | 1017.3 |
| 20260502022711 | 61 | 270 | 0.9 | 0.9 | 0.00 | 0.00 | 0.00 | 9 | 1017.3 |
| 20260502022535 | 61 | 270 | 0.9 | 0.9 | 0.00 | 0.00 | 0.00 | 9 | 1017.3 |
| 20260502022516 | 61 | 270 | 0.9 | 1.7 | 0.00 | 0.00 | 0.00 | 9 | 1017.2 |
| 20260502022053 | 61 | 0 | 0.0 | 0.0 | 0.00 | 0.00 | 0.00 | 9 | 1017.3 |
| 20260502021602 | 61 | 0 | 0.0 | 0.0 | 0.00 | 0.00 | 0.00 | 9 | 1017.3 |
| 20260502021111 | 60 | 0 | 0.0 | 0.0 | 0.00 | 0.00 | 0.00 | 9 | 1017.4 |
| 20260502020642 | 60 | 0 | 0.0 | 0.0 | 0.00 | 0.00 | 0.00 | 9 | 1017.3 |
| 20260502020151 | 60 | 292 | 0.0 | 0.9 | 0.00 | 0.00 | 0.00 | 9 | 1017.4 |
| 20260502015657 | 60 | 270 | 1.7 | 2.6 | 0.00 | 0.00 | 0.00 | 9 | 1017.6 |
| 20260502015516 | 60 | 270 | 1.7 | 2.6 | 0.00 | 0.00 | 0.00 | 9 | 1017.6 |
| 20260502015041 | 60 | 225 | 1.7 | 1.7 | 0.00 | 0.00 | 0.00 | 9 | 1017.4 |
| 20260502014606 | 60 | 202 | 0.0 | 1.7 | 0.00 | 0.00 | 0.00 | 9 | 1017.5 |
| 20260502014553 | 60 | 202 | 0.0 | 1.7 | 0.00 | 0.00 | 0.00 | 9 | 1017.5 |
| 20260502014122 | 60 | 202 | 0.9 | 1.7 | 0.00 | 0.00 | 0.00 | 9 | 1017.6 |
| 20260502013631 | 60 | 0 | 0.0 | 0.0 | 0.00 | 0.00 | 0.00 | 9 | 1017.5 |
| 20260502013203 | 60 | 270 | 0.0 | 0.9 | 0.00 | 0.00 | 0.00 | 9 | 1017.7 |
| 20260502012715 | 60 | 270 | 0.0 | 0.9 | 0.00 | 0.00 | 0.00 | 9 | 1017.7 |
| 20260502012713 | 60 | 270 | 0.0 | 0.9 | 0.00 | 0.00 | 0.00 | 9 | 1017.7 |
| 20260502012419 | 60 | 225 | 0.9 | 1.7 | 0.00 | 0.00 | 0.00 | 9 | 1017.7 |
| 20260502012326 | 60 | 225 | 0.9 | 1.7 | 0.00 | 0.00 | 0.00 | 9 | 1017.7 |
| 20260502011902 | 61 | 0 | 0.0 | 0.0 | 0.00 | 0.00 | 0.00 | 9 | 1017.8 |
| 20260502011504 | 61 | 0 | 0.0 | 0.0 | 0.00 | 0.00 | 0.00 | 9 | 1017.7 |
| 20260502011428 | 61 | 0 | 0.0 | 0.0 | 0.00 | 0.00 | 0.00 | 9 | 1017.7 |
| 20260502011008 | 61 | 0 | 0.0 | 0.0 | 0.00 | 0.00 | 0.00 | 9 | 1017.7 |
| 20260502010513 | 61 | 0 | 0.0 | 0.0 | 0.00 | 0.00 | 0.00 | 9 | 1017.9 |
| 20260502010504 | 61 | 0 | 0.0 | 0.0 | 0.00 | 0.00 | 0.00 | 9 | 1018.0 |
| 20260502010046 | 60 | 0 | 0.0 | 0.9 | 0.00 | 0.00 | 0.00 | 9 | 1018.1 |
| 20260502005633 | 61 | 292 | 0.0 | 0.9 | 0.00 | 0.00 | 0.00 | 9 | 1017.9 |
| 20260502005455 | 61 | 292 | 0.0 | 0.9 | 0.00 | 0.00 | 0.00 | 9 | 1017.9 |
| 20260502005218 | 60 | 292 | 0.9 | 0.9 | 0.00 | 0.00 | 0.00 | 9 | 1018.1 |
| 20260502004758 | 61 | 315 | 0.9 | 1.7 | 0.00 | 0.00 | 0.00 | 9 | 1018.1 |
| 20260502004540 | 61 | 292 | 0.9 | 1.7 | 0.00 | 0.00 | 0.00 | 9 | 1017.9 |
| 20260502004357 | 61 | 292 | 1.7 | 1.7 | 0.00 | 0.00 | 0.00 | 9 | 1018.0 |
| 20260502003949 | 61 | 0 | 0.0 | 0.0 | 0.00 | 0.00 | 0.00 | 9 | 1018.0 |
| 20260502003540 | 61 | 0 | 0.0 | 0.0 | 0.00 | 0.00 | 0.00 | 9 | 1018.1 |
| 20260502003123 | 61 | 0 | 0.0 | 0.0 | 0.00 | 0.00 | 0.00 | 9 | 1018.0 |
| 20260502002711 | 61 | 0 | 0.0 | 0.0 | 0.00 | 0.00 | 0.00 | 9 | 1018.1 |
| 20260502002414 | 61 | 292 | 0.0 | 0.9 | 0.00 | 0.00 | 0.00 | 9 | 1018.2 |
| 20260502001954 | 61 | 292 | 0.9 | 1.7 | 0.00 | 0.00 | 0.00 | 9 | 1018.2 |
| 20260502001535 | 61 | 292 | 1.7 | 2.6 | 0.00 | 0.00 | 0.00 | 9 | 1018.1 |
| 20260502001051 | 61 | 292 | 1.7 | 1.7 | 0.00 | 0.00 | 0.00 | 9 | 1018.3 |
| 20260502000634 | 61 | 270 | 1.7 | 1.7 | 0.00 | 0.00 | 0.00 | 9 | 1018.5 |
| 20260502000208 | 61 | 292 | 0.9 | 1.7 | 0.00 | 0.00 | 0.00 | 9 | 1018.6 |
| 20260501235714 | 61 | 270 | 1.7 | 1.7 | 0.00 | 0.00 | 0.00 | 9 | 1018.6 |
| 20260501235434 | 61 | 270 | 1.7 | 1.7 | 0.00 | 0.00 | 0.00 | 9 | 1018.5 |
| 20260501234937 | 61 | 270 | 0.9 | 1.7 | 0.00 | 0.00 | 0.00 | 9 | 1018.7 |
| 20260501234520 | 61 | 0 | 0.0 | 0.9 | 0.00 | 0.00 | 0.00 | 9 | 1018.6 |
| 20260501234036 | 62 | 0 | 0.0 | 0.0 | 0.00 | 0.00 | 0.00 | 9 | 1018.6 |
| 20260501233619 | 62 | 0 | 0.0 | 0.9 | 0.00 | 0.00 | 0.00 | 9 | 1018.7 |
| 20260501233154 | 62 | 0 | 0.0 | 0.0 | 0.00 | 0.00 | 0.00 | 9 | 1018.6 |
| 20260501232659 | 62 | 0 | 0.0 | 0.0 | 0.00 | 0.00 | 0.00 | 9 | 1018.7 |
| 20260501232442 | 62 | 0 | 0.0 | 0.0 | 0.00 | 0.00 | 0.00 | 9 | 1018.7 |
| 20260501232009 | 62 | 0 | 0.0 | 0.0 | 0.00 | 0.00 | 0.00 | 9 | 1018.9 |
| 20260501231700 | 61 | 0 | 0.0 | 0.0 | 0.00 | 0.00 | 0.00 | 9 | 1018.9 |
| 20260501231519 | 61 | 0 | 0.0 | 0.0 | 0.00 | 0.00 | 0.00 | 9 | 1018.8 |
| 20260501231047 | 61 | 292 | 0.0 | 0.9 | 0.00 | 0.00 | 0.00 | 9 | 1018.8 |
| 20260501230701 | 61 | 292 | 0.9 | 1.7 | 0.00 | 0.00 | 0.00 | 9 | 1018.8 |
| 20260501230629 | 61 | 292 | 0.9 | 1.7 | 0.00 | 0.00 | 0.00 | 9 | 1018.7 |
| 20260501230204 | 61 | 292 | 1.7 | 2.6 | 0.00 | 0.00 | 0.00 | 9 | 1018.8 |
| 20260501225710 | 61 | 270 | 1.7 | 1.7 | 0.00 | 0.00 | 0.00 | 9 | 1018.8 |
| 20260501225242 | 61 | 270 | 1.7 | 2.6 | 0.00 | 0.00 | 0.00 | 9 | 1018.7 |
| 20260501225202 | 61 | 270 | 1.7 | 1.7 | 0.00 | 0.00 | 0.00 | 9 | 1018.8 |
| 20260501224758 | 61 | 270 | 0.9 | 1.7 | 0.00 | 0.00 | 0.00 | 9 | 1018.8 |
| 20260501224326 | 61 | 225 | 0.9 | 1.7 | 0.00 | 0.00 | 0.00 | 9 | 1018.8 |
| 20260501224257 | 61 | 225 | 1.7 | 1.7 | 0.00 | 0.00 | 0.00 | 9 | 1018.7 |
| 20260501223835 | 61 | 202 | 1.7 | 1.7 | 0.00 | 0.00 | 0.00 | 9 | 1018.7 |
| 20260501223402 | 61 | 202 | 0.9 | 1.7 | 0.00 | 0.00 | 0.00 | 9 | 1018.6 |
| 20260501222916 | 61 | 0 | 0.0 | 0.0 | 0.00 | 0.00 | 0.00 | 9 | 1018.7 |
| 20260501222440 | 61 | 202 | 0.0 | 0.9 | 0.00 | 0.00 | 0.00 | 9 | 1018.7 |
| 20260501222016 | 61 | 202 | 0.0 | 1.7 | 0.00 | 0.00 | 0.00 | 9 | 1018.7 |
| 20260501221531 | 61 | 202 | 0.0 | 0.9 | 0.00 | 0.00 | 0.00 | 9 | 1018.7 |
| 20260501221101 | 61 | 202 | 0.0 | 0.9 | 0.00 | 0.00 | 0.00 | 9 | 1018.9 |
| 20260501220609 | 61 | 202 | 2.6 | 2.6 | 0.00 | 0.00 | 0.00 | 9 | 1018.9 |
| 20260501220537 | 61 | 202 | 1.7 | 2.6 | 0.00 | 0.00 | 0.00 | 9 | 1019.1 |
| 20260501220121 | 60 | 202 | 0.9 | 1.7 | 0.00 | 0.00 | 0.00 | 9 | 1019.0 |
| 20260501215706 | 61 | 202 | 0.9 | 1.7 | 0.00 | 0.00 | 0.00 | 9 | 1019.0 |
| 20260501215531 | 61 | 202 | 1.7 | 2.6 | 0.00 | 0.00 | 0.00 | 9 | 1019.0 |
| 20260501215445 | 61 | 202 | 1.7 | 2.6 | 0.00 | 0.00 | 0.00 | 9 | 1019.0 |
| 20260501214959 | 61 | 202 | 0.9 | 1.7 | 0.00 | 0.00 | 0.00 | 9 | 1019.1 |
| 20260501214621 | 61 | 180 | 0.9 | 1.7 | 0.00 | 0.00 | 0.00 | 9 | 1018.9 |
| 20260501214510 | 61 | 180 | 0.0 | 1.7 | 0.00 | 0.00 | 0.00 | 9 | 1019.0 |
| 20260501214037 | 61 | 0 | 0.0 | 0.0 | 0.00 | 0.00 | 0.00 | 9 | 1019.1 |
| 20260501213656 | 62 | 0 | 0.0 | 0.0 | 0.00 | 0.00 | 0.00 | 9 | 1019.1 |
| 20260501213620 | 62 | 0 | 0.0 | 0.0 | 0.00 | 0.00 | 0.00 | 9 | 1019.1 |
| 20260501213154 | 62 | 0 | 0.0 | 0.0 | 0.00 | 0.00 | 0.00 | 9 | 1019.0 |
| 20260501212701 | 63 | 180 | 0.0 | 1.7 | 0.00 | 0.00 | 0.00 | 9 | 1019.0 |
| 20260501212659 | 63 | 180 | 0.0 | 1.7 | 0.00 | 0.00 | 0.00 | 9 | 1019.0 |
| 20260501212559 | 63 | 180 | 0.0 | 1.7 | 0.00 | 0.00 | 0.00 | 9 | 1019.0 |
| 20260501212405 | 63 | 0 | 0.0 | 0.0 | 0.00 | 0.00 | 0.00 | 9 | 1019.1 |
| 20260501211942 | 63 | 180 | 0.9 | 0.9 | 0.00 | 0.00 | 0.00 | 9 | 1019.0 |
| 20260501211659 | 63 | 180 | 1.7 | 2.6 | 0.00 | 0.00 | 0.00 | 9 | 1019.1 |
| 20260501211520 | 63 | 135 | 1.7 | 1.7 | 0.00 | 0.00 | 0.00 | 9 | 1019.2 |
| 20260501211052 | 63 | 0 | 0.0 | 0.0 | 0.00 | 0.00 | 0.00 | 9 | 1019.2 |
| 20260501210636 | 63 | 0 | 0.0 | 0.9 | 0.00 | 0.00 | 0.00 | 9 | 1019.2 |
| 20260501210202 | 64 | 90 | 0.9 | 1.7 | 0.00 | 0.00 | 0.00 | 9 | 1019.1 |
| 20260501205708 | 64 | 90 | 0.0 | 0.9 | 0.00 | 0.00 | 0.00 | 9 | 1019.2 |
| 20260501205430 | 64 | 0 | 0.0 | 0.0 | 0.00 | 0.00 | 0.00 | 9 | 1019.1 |
| 20260501205411 | 64 | 90 | 0.0 | 0.9 | 0.00 | 0.00 | 0.00 | 9 | 1019.0 |
| 20260501204916 | 64 | 0 | 0.0 | 0.0 | 0.00 | 0.00 | 0.00 | 9 | 1019.2 |
| 20260501204552 | 64 | 0 | 0.0 | 0.9 | 0.00 | 0.00 | 0.00 | 9 | 1019.2 |
| 20260501204442 | 64 | 90 | 0.9 | 1.7 | 0.00 | 0.00 | 0.00 | 9 | 1019.3 |
| 20260501204041 | 64 | 90 | 1.7 | 2.6 | 0.00 | 0.00 | 0.00 | 9 | 1019.2 |
| 20260501203656 | 64 | 112 | 1.7 | 2.6 | 0.00 | 0.00 | 0.00 | 9 | 1019.2 |
| 20260501203620 | 64 | 112 | 1.7 | 2.6 | 0.00 | 0.00 | 0.00 | 9 | 1019.2 |
| 20260501203156 | 64 | 112 | 1.7 | 2.6 | 0.00 | 0.00 | 0.00 | 9 | 1019.1 |
| 20260501202701 | 64 | 90 | 0.9 | 1.7 | 0.00 | 0.00 | 0.00 | 9 | 1019.2 |
| 20260501202226 | 64 | 90 | 0.0 | 1.7 | 0.00 | 0.00 | 0.00 | 9 | 1019.1 |
| 20260501201820 | 64 | 90 | 0.9 | 1.7 | 0.00 | 0.00 | 0.00 | 9 | 1019.1 |
| 20260501201500 | 64 | 90 | 1.7 | 1.7 | 0.00 | 0.00 | 0.00 | 9 | 1019.0 |
| 20260501201401 | 64 | 90 | 1.7 | 2.6 | 0.00 | 0.00 | 0.00 | 9 | 1019.0 |
| 20260501200956 | 64 | 112 | 2.6 | 3.5 | 0.00 | 0.00 | 0.00 | 9 | 1018.8 |
| 20260501200612 | 64 | 112 | 1.7 | 2.6 | 0.00 | 0.00 | 0.00 | 9 | 1018.9 |
| 20260501200536 | 64 | 112 | 1.7 | 2.6 | 0.00 | 0.00 | 0.00 | 9 | 1018.7 |
| 20260501200111 | 64 | 90 | 1.7 | 2.6 | 0.00 | 0.00 | 0.00 | 9 | 1018.7 |
| 20260501195618 | 64 | 90 | 0.9 | 2.6 | 0.00 | 0.00 | 0.00 | 9 | 1018.7 |
| 20260501195616 | 64 | 90 | 0.9 | 2.6 | 0.00 | 0.00 | 0.00 | 9 | 1018.7 |
| 20260501195317 | 64 | 112 | 2.6 | 3.5 | 0.00 | 0.00 | 0.00 | 9 | 1018.7 |
| 20260501195202 | 64 | 112 | 2.6 | 3.5 | 0.00 | 0.00 | 0.00 | 9 | 1018.6 |
| 20260501194800 | 64 | 90 | 0.0 | 1.7 | 0.00 | 0.00 | 0.00 | 9 | 1018.5 |
| 20260501194454 | 64 | 112 | 1.7 | 2.6 | 0.00 | 0.00 | 0.00 | 9 | 1018.6 |
| 20260501194305 | 64 | 112 | 0.9 | 1.7 | 0.00 | 0.00 | 0.00 | 9 | 1018.4 |
| 20260501193856 | 65 | 112 | 0.9 | 1.7 | 0.00 | 0.00 | 0.00 | 9 | 1018.3 |
| 20260501193535 | 65 | 112 | 1.7 | 2.6 | 0.00 | 0.00 | 0.00 | 9 | 1018.4 |
| 20260501193406 | 65 | 112 | 0.0 | 2.6 | 0.00 | 0.00 | 0.00 | 9 | 1018.4 |
| 20260501192907 | 64 | 112 | 0.9 | 2.6 | 0.00 | 0.00 | 0.00 | 8 | 1018.4 |
| 20260501192639 | 64 | 112 | 1.7 | 2.6 | 0.00 | 0.00 | 0.00 | 8 | 1018.3 |
| 20260501192411 | 64 | 112 | 0.9 | 2.6 | 0.00 | 0.00 | 0.00 | 9 | 1018.3 |
| 20260501191952 | 64 | 112 | 0.9 | 1.7 | 0.00 | 0.00 | 0.00 | 9 | 1018.1 |
| 20260501191704 | 64 | 135 | 2.6 | 5.2 | 0.00 | 0.00 | 0.00 | 9 | 1018.0 |
| 20260501191533 | 64 | 112 | 2.6 | 5.2 | 0.00 | 0.00 | 0.00 | 9 | 1018.0 |
| 20260501191049 | 64 | 112 | 2.6 | 3.5 | 0.00 | 0.00 | 0.00 | 9 | 1018.0 |
| 20260501190704 | 64 | 112 | 2.6 | 3.5 | 0.00 | 0.00 | 0.00 | 9 | 1018.0 |
| 20260501190632 | 64 | 112 | 2.6 | 3.5 | 0.00 | 0.00 | 0.00 | 9 | 1018.0 |
| 20260501190207 | 64 | 90 | 2.6 | 3.5 | 0.00 | 0.00 | 0.00 | 9 | 1017.9 |
| 20260501185712 | 64 | 112 | 2.6 | 5.2 | 0.00 | 0.00 | 0.00 | 9 | 1017.8 |
| 20260501185442 | 64 | 112 | 5.2 | 7.0 | 0.00 | 0.00 | 0.00 | 9 | 1017.8 |
| 20260501184957 | 65 | 90 | 5.2 | 7.8 | 0.00 | 0.00 | 0.00 | 8 | 1017.8 |
| 20260501184553 | 65 | 135 | 3.5 | 5.2 | 0.00 | 0.00 | 0.00 | 8 | 1017.8 |
| 20260501184520 | 65 | 135 | 3.5 | 5.2 | 0.00 | 0.00 | 0.00 | 8 | 1017.8 |
| 20260501184035 | 65 | 90 | 4.3 | 5.2 | 0.00 | 0.00 | 0.00 | 8 | 1017.6 |
| 20260501183617 | 65 | 90 | 3.5 | 5.2 | 0.00 | 0.00 | 0.00 | 8 | 1017.7 |
| 20260501183152 | 65 | 135 | 3.5 | 5.2 | 0.00 | 0.00 | 0.00 | 8 | 1017.6 |
| 20260501182659 | 65 | 90 | 2.6 | 3.5 | 0.00 | 0.00 | 0.00 | 8 | 1017.5 |
| 20260501182657 | 65 | 90 | 2.6 | 3.5 | 0.00 | 0.00 | 0.00 | 8 | 1017.5 |
| 20260501182410 | 65 | 112 | 2.6 | 3.5 | 0.00 | 0.00 | 0.00 | 8 | 1017.6 |
| 20260501181951 | 66 | 90 | 1.7 | 2.6 | 0.00 | 0.00 | 0.00 | 8 | 1017.7 |
| 20260501181532 | 65 | 112 | 0.0 | 0.9 | 0.00 | 0.00 | 0.00 | 8 | 1017.7 |
| 20260501181047 | 66 | 112 | 0.9 | 2.6 | 0.00 | 0.00 | 0.00 | 8 | 1017.7 |
| 20260501180704 | 66 | 67 | 0.9 | 1.7 | 0.00 | 0.00 | 0.00 | 8 | 1017.6 |
| 20260501180630 | 66 | 90 | 0.9 | 1.7 | 0.00 | 0.00 | 0.00 | 8 | 1017.5 |